Change the Weather History Date:

Saturday, July 7, 2012

  Actual Average Record
Temperature  
Mean Temperature 73 °F 67 °F  
Max Temperature 81 °F 79 °F 100 °F (1988)
Min Temperature 64 °F 55 °F 36 °F (1969)
Degree Days  
Heating Degree Days 0 2  
Month to date heating degree days 0 14  
Since 1 June heating degree days 84 157  
Since 1 July heating degree days 0 14  
Cooling Degree Days 8 4  
Month to date cooling degree days 79 25  
Year to date cooling degree days 223 94  
Since 1 June cooling degree days 197 81  
Growing Degree Days 22 (Base 50)    
Moisture  
Dew Point 61 °F    
Average Humidity 68    
Maximum Humidity 93    
Minimum Humidity 42    
Precipitation  
Precipitation 0.24 in 0.10 in 1.53 in (1977)
Month to date precipitation 0.58 0.68  
Year to date precipitation 13.71 13.20  
Sea Level Pressure  
Sea Level Pressure 29.99 in    
Wind  
Wind Speed 9 mph (NNW)    
Max Wind Speed 17 mph    
Max Gust Speed 22 mph    
Visibility 10 miles    
Events Rain , Thunderstorm    
T = Trace of Precipitation, MM = Missing Value Source: NWS Daily Summary

Daily Weather History Graph

Daily Weather History Graph

Search for Another Location

Airport or City:

Trip Planner

Search our weather history database for the weather conditions in past years. The results will help you decide how hot, cold, wet, or windy it might be!

Date:

Astronomy

Jul. 07, 2012 Rise Set
Actual Time 5:55 AM EDT 9:22 PM EDT
Civil Twilight 5:18 AM EDT 9:59 PM EDT
Nautical Twilight 4:30 AM EDT 10:47 PM EDT
Astronomical Twilight 3:27 AM EDT 11:49 PM EDT
Moon 11:25 PM EDT (7/7) 10:33 AM EDT (7/7)
Length of Visible Light 16h 40m
Length of Day
15h 27m
Waning Gibbous, 82% of the Moon is Illuminated
Jul 7
Waning Gibbous
Jul 10
Last Quarter
Jul 19
New
Jul 26
First Quarter
Aug 1
Full

Hourly Weather History & Observations

Time (EDT) Temp. Heat Index Dew Point Humidity Pressure Visibility Wind Dir Wind Speed Gust Speed Precip Events Conditions
12:54 AM 73.0 °F - 63.0 °F 71% 29.93 in 10.0 mi Calm Calm - N/A   Clear
1:54 AM 73.9 °F - 61.0 °F 64% 29.96 in 10.0 mi NNW 10.4 mph - N/A   Mostly Cloudy
2:54 AM 72.0 °F - 60.1 °F 66% 29.90 in 10.0 mi NE 6.9 mph - N/A   Clear
3:54 AM 69.1 °F - 61.0 °F 75% 29.96 in 10.0 mi North 15.0 mph - N/A   Overcast
4:16 AM 66.2 °F - 62.6 °F 88% 29.95 in 10.0 mi NNE 8.1 mph - 0.00 in Rain , Thunderstorm Light Thunderstorms and Rain
4:37 AM 66.2 °F - 62.6 °F 88% 29.95 in 10.0 mi NE 8.1 mph - 0.00 in Thunderstorm Overcast
4:54 AM 66.0 °F - 62.1 °F 87% 29.94 in 10.0 mi NNE 9.2 mph - 0.00 in Thunderstorm Thunderstorm
5:18 AM 66.2 °F - 62.6 °F 88% 29.96 in 10.0 mi North 12.7 mph 21.9 mph N/A Thunderstorm Thunderstorm
5:31 AM 66.2 °F - 60.8 °F 83% 29.96 in 10.0 mi NE 9.2 mph - N/A Thunderstorm Thunderstorm
5:54 AM 66.0 °F - 61.0 °F 84% 30.03 in 10.0 mi NW 17.3 mph 21.9 mph N/A Thunderstorm Thunderstorm
6:10 AM 64.4 °F - 62.6 °F 94% 29.98 in 3.0 mi NNE 6.9 mph - 0.12 in Rain , Thunderstorm Heavy Thunderstorms and Rain
6:22 AM 64.4 °F - 62.6 °F 94% 29.99 in 4.0 mi North 6.9 mph - 0.18 in Rain , Thunderstorm Heavy Thunderstorms and Rain
6:29 AM 64.4 °F - 62.6 °F 94% 29.98 in 5.0 mi North 8.1 mph - 0.22 in Rain , Thunderstorm Light Thunderstorms and Rain
6:43 AM 64.4 °F - 62.6 °F 94% 30.00 in 10.0 mi North 9.2 mph - 0.22 in Rain Light Rain
6:54 AM 64.0 °F - 62.1 °F 93% 29.99 in 10.0 mi North 9.2 mph - 0.22 in Rain Light Rain
7:00 AM 64.4 °F - 62.6 °F 94% 30.00 in 10.0 mi NNW 9.2 mph - 0.00 in Rain Light Rain
7:54 AM 64.0 °F - 63.0 °F 96% 29.95 in 10.0 mi North 8.1 mph - 0.02 in Rain Light Rain
8:15 AM 64.4 °F - 62.6 °F 94% 29.99 in 10.0 mi WNW 4.6 mph - 0.00 in Rain Light Rain
8:54 AM 64.9 °F - 63.0 °F 93% 29.99 in 10.0 mi NW 4.6 mph - 0.00 in   Overcast
9:13 AM 64.4 °F - 62.6 °F 94% 30.00 in 10.0 mi NNW 8.1 mph - N/A   Overcast
9:52 AM 66.2 °F - 62.6 °F 88% 29.99 in 10.0 mi NNW 4.6 mph - N/A   Overcast
9:54 AM 66.0 °F - 63.0 °F 90% 29.98 in 10.0 mi NNW 8.1 mph - N/A   Overcast
10:17 AM 64.4 °F - 62.6 °F 94% 29.99 in 10.0 mi NNW 8.1 mph - 0.00 in Rain Light Rain
10:54 AM 66.9 °F - 63.0 °F 87% 30.00 in 10.0 mi NW 5.8 mph - 0.00 in   Overcast
11:29 AM 69.8 °F - 62.6 °F 78% 30.01 in 10.0 mi Variable 3.5 mph - N/A   Overcast
11:44 AM 69.8 °F - 62.6 °F 78% 30.01 in 10.0 mi NW 6.9 mph - N/A   Overcast
11:52 AM 71.6 °F - 62.6 °F 73% 30.01 in 10.0 mi NW 4.6 mph - N/A   Mostly Cloudy
11:54 AM 72.0 °F - 63.0 °F 73% 30.01 in 10.0 mi WNW 8.1 mph - N/A   Mostly Cloudy
12:02 PM 71.6 °F - 62.6 °F 73% 30.01 in 10.0 mi North 8.1 mph - N/A   Mostly Cloudy
12:54 PM 73.9 °F - 62.1 °F 66% 30.00 in 10.0 mi NW 8.1 mph - N/A   Scattered Clouds
1:03 PM 75.2 °F - 62.6 °F 65% 30.01 in 10.0 mi NNW 6.9 mph - N/A   Mostly Cloudy
1:12 PM 75.2 °F - 60.8 °F 61% 30.01 in 10.0 mi NNW 9.2 mph - N/A   Scattered Clouds
1:54 PM 78.1 °F - 61.0 °F 56% 29.99 in 10.0 mi NNW 10.4 mph 16.1 mph N/A   Clear
2:54 PM 80.1 °F 80.6 °F 57.9 °F 47% 29.99 in 10.0 mi North 8.1 mph - N/A   Clear
3:01 PM 78.8 °F - 57.2 °F 47% 30.00 in 10.0 mi NW 12.7 mph - N/A   Partly Cloudy
3:54 PM 80.1 °F 80.2 °F 55.9 °F 43% 29.99 in 10.0 mi North 11.5 mph - N/A   Partly Cloudy
4:54 PM 81.0 °F 81.0 °F 57.0 °F 44% 29.99 in 10.0 mi NNW 9.2 mph - N/A   Clear
5:54 PM 81.0 °F 81.1 °F 57.9 °F 45% 29.99 in 10.0 mi North 10.4 mph - N/A   Clear
6:31 PM 80.6 °F 80.8 °F 57.2 °F 45% 29.99 in 10.0 mi NW 9.2 mph - N/A   Clear
6:54 PM 81.0 °F 81.1 °F 57.9 °F 45% 29.99 in 10.0 mi NW 9.2 mph - N/A   Clear
7:54 PM 78.1 °F - 55.9 °F 46% 29.99 in 10.0 mi NNW 8.1 mph - N/A   Clear
8:54 PM 75.0 °F - 57.9 °F 55% 30.00 in 10.0 mi NW 5.8 mph - N/A   Clear
9:54 PM 71.1 °F - 57.9 °F 63% 30.01 in 9.0 mi WNW 5.8 mph - 0.00 in   Clear
10:54 PM 69.1 °F - 59.0 °F 70% 30.02 in 10.0 mi NNW 6.9 mph - N/A   Clear
11:54 PM 66.9 °F - 59.0 °F 76% 30.02 in 10.0 mi NW 8.1 mph - N/A   Clear